ONEWEB-0701, 61607

Orbit data source: Space-Track

ONEWEB-0701, 61607 is a payload satellite owned by Eut. One Web (UK) in LEO that was launched on Sun, 20 Oct 2024 UTC via an FALCON 9 launch vehicle from the Air Force Western Test Range (AFWTR). Payload-class satellites include a variety of spacecraft equipped with specific instruments for various scientific and technological missions. These include communications satellites like Starlink; space stations such as the ISS; scientific satellites like the Hubble; Earth observation satellites from companies like Planet Labs, Umbra, and HawkEye 360; GPS; miniature CubeSats for education and research; and military/defense satellites.

Loading next visibility...
Identifier
61607, 2024-188P
Orbit
LEO
Country
Flag of UKUK
Related business
Manufacturer
One Web
Mission
Operational Commercial Communications
Bus & Motor
ARROW, Unknown motor
Mass
148 kg wet, ~140 kg dry
Launch date (UTC)
2024-10-20 (1 year ago)
Launch vehicle
FALCON 9
Launch site
Air Force Western Test Range (AFWTR)
Object type
Payload
Rocket body
Debris
Shape & HBR
Trap Box + 2 Pan, 6.7 m
Radar Cross Section
3.464 m², Large (>1 m²)

Expand to show TLE details & history
Last TLE update: 6 hours ago

TLE from 6 hours ago
0 ONEWEB-0701
1 61607U 24188P   25308.28459894  .00000653  00000-0  18351-2 0  9994
2 61607  87.8790  81.0922 0002419  91.6565 268.4839 13.10373802 53850
Epoch: 2025-11-04T06:49Z
TLE epoch observation values (Epoch: 2025-11-04T06:49:49.348Z)
Latitude
-0.00006°
Longitude
-65.13724°
Altitude
1,224.65 km
Speed
7.242 km/s
True Right ascension
05h 24m 22s
True Declination
0° 00' 00"
Sunlit
Object was in full shadow at epoch
Visualization orbit readout
Latitude
Unknown
Longitude
Unknown
Altitude
Unknown
Speed
Unknown
Apparent Right ascension
Unknown
Apparent Declination
Unknown
Sunlit
N/A
Visualization observer readout
Local Sidereal Time
08:40:56
Azimuth
Unknown
Elevation
Unknown
Doppler factor
Unknown
Orbital elements
Apogee altitude
1,220.671 km
Perigee altitude
1,216.995 km
Semi-major axis
7,596.97 km
Eccentricity
0.00024
Inclination
87.879°
RAAN
81.0922°
Arg. of periapsis
91.6565°
True anomaly
268.45619°
Mean anomaly
268.4839°
Eccentric anomaly
268.47005°
Mean motion
3.2778 °/min
Orbital period
109.83 mins
BSTAR
0.0018351
Loading maneuver chart data...
Computing Atmospheric mass density...
Loading historical data...
Loading historical data...
Loading historical data...
Loading historical data...
Loading historical data...
Loading historical data...
Loading historical data...

Documentation

Showing up to 5 results
|